Hourly Weather Bolshie Saltyki

Today, 20 June, Sunday

Time Temperature Precipitation Wind Pressure Humidity
00:00 +19°C° 0 mm 5 mps 756 mmHg 87%
01:00 +18°C° 0 mm 4 mps 757 mmHg 88%
02:00 +18°C° 0 mm 4 mps 757 mmHg 89%
03:00 +18°C° 0 mm 4 mps 757 mmHg 89%
04:00 +19°C° 0 mm 4 mps 757 mmHg 86%
05:00 +20°C° 0 mm 4 mps 757 mmHg 83%
06:00 +21°C° 0 mm 3 mps 757 mmHg 80%
07:00 +24°C° 0 mm 3 mps 757 mmHg 75%
08:00 +25°C° 0 mm 4 mps 757 mmHg 70%
09:00 +26°C° 0 mm 4 mps 757 mmHg 65%
10:00 +27°C° 0 mm 4 mps 757 mmHg 62%
11:00 +28°C° 0 mm 4 mps 757 mmHg 59%
12:00 +29°C° 0 mm 4 mps 757 mmHg 56%
13:00 +30°C° 0 mm 3 mps 757 mmHg 55%
14:00 +30°C° 0 mm 3 mps 757 mmHg 55%
15:00 +30°C° 0 mm 3 mps 757 mmHg 54%
16:00 +29°C° 0 mm 3 mps 757 mmHg 59%
17:00 +29°C° 0 mm 3 mps 756 mmHg 64%
18:00 +28°C° 0 mm 3 mps 756 mmHg 69%
19:00 +27°C° 0 mm 2 mps 756 mmHg 73%
20:00 +25°C° 0 mm 2 mps 756 mmHg 78%
21:00 +24°C° 0 mm 2 mps 757 mmHg 82%
22:00 +23°C° 0 mm 2 mps 757 mmHg 84%
23:00 +23°C° 0 mm 1 mps 757 mmHg 85%

Tomorrow, 21 June, Monday

Time Temperature Precipitation Wind Pressure Humidity
00:00 +22°C° 0 mm 1 mps 757 mmHg 86%
01:00 +22°C° 0 mm 1 mps 757 mmHg 87%
02:00 +21°C° 0 mm 2 mps 757 mmHg 87%
03:00 +21°C° 0 mm 2 mps 757 mmHg 87%
04:00 +21°C° 0 mm 2 mps 757 mmHg 85%
05:00 +23°C° 0 mm 2 mps 757 mmHg 83%
06:00 +24°C° 0 mm 3 mps 757 mmHg 81%
07:00 +25°C° 0 mm 3 mps 757 mmHg 76%
08:00 +26°C° 0 mm 3 mps 757 mmHg 71%
09:00 +28°C° 0 mm 3 mps 757 mmHg 65%
10:00 +28°C° 0 mm 3 mps 757 mmHg 62%
11:00 +29°C° 0 mm 3 mps 757 mmHg 58%
12:00 +30°C° 0 mm 3 mps 757 mmHg 55%
13:00 +30°C° 0 mm 3 mps 757 mmHg 54%
14:00 +31°C° 0 mm 3 mps 757 mmHg 52%
15:00 +31°C° 0 mm 3 mps 757 mmHg 51%
16:00 +30°C° 0 mm 3 mps 757 mmHg 56%
17:00 +30°C° 0 mm 2 mps 757 mmHg 60%
18:00 +29°C° 0 mm 2 mps 756 mmHg 65%
19:00 +28°C° 0 mm 2 mps 757 mmHg 68%
20:00 +26°C° 0 mm 2 mps 757 mmHg 72%
21:00 +25°C° 0 mm 1 mps 757 mmHg 75%
22:00 +24°C° 0 mm 2 mps 757 mmHg 78%
23:00 +23°C° 0 mm 2 mps 757 mmHg 81%

Day after tomorrow, 22 June, Tuesday

Time Temperature Precipitation Wind Pressure Humidity
00:00 +23°C° 0 mm 2 mps 757 mmHg 83%
01:00 +23°C° 0 mm 2 mps 757 mmHg 85%
02:00 +21°C° 0 mm 2 mps 757 mmHg 87%
03:00 +21°C° 0 mm 2 mps 757 mmHg 89%
04:00 +23°C° 0 mm 2 mps 758 mmHg 86%
05:00 +24°C° 0 mm 3 mps 758 mmHg 83%
06:00 +25°C° 0 mm 3 mps 758 mmHg 80%
07:00 +26°C° 0.1 mm 3 mps 758 mmHg 75%
08:00 +27°C° 0.1 mm 3 mps 758 mmHg 70%
09:00 +29°C° 0.1 mm 2 mps 758 mmHg 64%
10:00 +30°C° 0.1 mm 2 mps 758 mmHg 61%
11:00 +30°C° 0.1 mm 3 mps 758 mmHg 58%
12:00 +31°C° 0.1 mm 3 mps 758 mmHg 54%
13:00 +31°C° 0 mm 3 mps 758 mmHg 53%
14:00 +33°C° 0 mm 3 mps 758 mmHg 51%
15:00 +33°C° 0 mm 3 mps 757 mmHg 49%
16:00 +31°C° 0 mm 3 mps 757 mmHg 54%
17:00 +31°C° 0 mm 3 mps 757 mmHg 59%
18:00 +30°C° 0 mm 3 mps 756 mmHg 64%
19:00 +28°C° 0 mm 2 mps 757 mmHg 68%
20:00 +27°C° 0 mm 2 mps 757 mmHg 73%
21:00 +25°C° 0 mm 2 mps 757 mmHg 78%
22:00 +24°C° 0 mm 2 mps 757 mmHg 79%
23:00 +24°C° 0 mm 2 mps 757 mmHg 80%

23 June, Wednesday

Time Temperature Precipitation Wind Pressure Humidity
00:00 +24°C° 0 mm 2 mps 757 mmHg 82%
01:00 +23°C° 0 mm 2 mps 757 mmHg 83%
02:00 +23°C° 0 mm 2 mps 757 mmHg 84%
03:00 +23°C° 0 mm 2 mps 757 mmHg 85%
04:00 +23°C° 0 mm 2 mps 757 mmHg 83%
05:00 +24°C° 0 mm 2 mps 757 mmHg 81%
06:00 +25°C° 0 mm 3 mps 757 mmHg 79%
07:00 +26°C° 0 mm 3 mps 757 mmHg 73%
08:00 +28°C° 0 mm 2 mps 757 mmHg 67%
09:00 +29°C° 0 mm 2 mps 757 mmHg 61%
10:00 +30°C° 0 mm 2 mps 757 mmHg 58%
11:00 +31°C° 0 mm 2 mps 757 mmHg 54%
12:00 +31°C° 0 mm 2 mps 757 mmHg 51%
13:00 +32°C° 0 mm 2 mps 757 mmHg 49%
14:00 +32°C° 0 mm 2 mps 757 mmHg 47%
15:00 +33°C° 0 mm 3 mps 757 mmHg 46%
16:00 +31°C° 0 mm 2 mps 757 mmHg 51%
17:00 +31°C° 0 mm 2 mps 756 mmHg 56%
18:00 +30°C° 0 mm 2 mps 756 mmHg 61%
19:00 +29°C° 0 mm 2 mps 756 mmHg 65%
20:00 +27°C° 0 mm 2 mps 756 mmHg 68%
21:00 +25°C° 0 mm 2 mps 757 mmHg 72%
22:00 +25°C° 0 mm 2 mps 756 mmHg 72%
23:00 +25°C° 0 mm 2 mps 756 mmHg 73%

24 June, Thursday

Time Temperature Precipitation Wind Pressure Humidity
00:00 +25°C° 0 mm 2 mps 756 mmHg 73%
01:00 +24°C° 0.4 mm 2 mps 756 mmHg 78%
02:00 +23°C° 0.4 mm 2 mps 756 mmHg 82%
03:00 +21°C° 0.4 mm 2 mps 756 mmHg 87%
04:00 +23°C° 0.2 mm 2 mps 756 mmHg 84%
05:00 +24°C° 0.2 mm 2 mps 756 mmHg 82%
06:00 +25°C° 0.2 mm 2 mps 756 mmHg 79%
07:00 +26°C° 0 mm 3 mps 756 mmHg 74%
08:00 +28°C° 0 mm 3 mps 756 mmHg 70%
09:00 +29°C° 0 mm 3 mps 756 mmHg 65%
10:00 +30°C° 0.1 mm 3 mps 756 mmHg 61%
11:00 +31°C° 0.1 mm 2 mps 756 mmHg 57%
12:00 +32°C° 0.1 mm 2 mps 756 mmHg 52%
13:00 +32°C° 0.1 mm 2 mps 755 mmHg 51%
14:00 +32°C° 0.1 mm 2 mps 755 mmHg 50%
15:00 +32°C° 0.1 mm 2 mps 755 mmHg 49%
16:00 +32°C° 0.1 mm 2 mps 755 mmHg 53%
17:00 +32°C° 0.1 mm 2 mps 755 mmHg 57%
18:00 +31°C° 0.1 mm 1 mps 754 mmHg 61%
19:00 +29°C° 0.3 mm 2 mps 754 mmHg 68%
20:00 +27°C° 0.3 mm 2 mps 754 mmHg 74%
21:00 +25°C° 0.3 mm 3 mps 754 mmHg 81%
22:00 +25°C° 0 mm 3 mps 754 mmHg 82%
23:00 +24°C° 0 mm 3 mps 754 mmHg 83%

25 June, Friday

Time Temperature Precipitation Wind Pressure Humidity
00:00 +24°C° 0 mm 3 mps 754 mmHg 84%
01:00 +24°C° 0 mm 2 mps 754 mmHg 85%
02:00 +23°C° 0 mm 2 mps 754 mmHg 86%
03:00 +23°C° 0 mm 2 mps 753 mmHg 87%
04:00 +24°C° 0 mm 2 mps 753 mmHg 84%
05:00 +25°C° 0 mm 2 mps 754 mmHg 80%
06:00 +26°C° 0 mm 2 mps 754 mmHg 77%
07:00 +27°C° 0 mm 3 mps 753 mmHg 72%
08:00 +28°C° 0 mm 3 mps 753 mmHg 66%
09:00 +30°C° 0 mm 4 mps 753 mmHg 61%
10:00 +30°C° 0 mm 4 mps 753 mmHg 59%
11:00 +32°C° 0 mm 4 mps 753 mmHg 56%
12:00 +33°C° 0 mm 4 mps 753 mmHg 53%
13:00 +33°C° 0 mm 4 mps 753 mmHg 53%
14:00 +33°C° 0 mm 4 mps 753 mmHg 52%
15:00 +34°C° 0 mm 5 mps 753 mmHg 52%
16:00 +33°C° 0 mm 4 mps 752 mmHg 57%
17:00 +32°C° 0 mm 4 mps 752 mmHg 62%
18:00 +30°C° 0 mm 4 mps 751 mmHg 66%
19:00 +29°C° 0 mm 4 mps 751 mmHg 72%
20:00 +27°C° 0 mm 3 mps 751 mmHg 77%
21:00 +26°C° 0 mm 3 mps 751 mmHg 83%
22:00 +26°C° 0 mm 3 mps 751 mmHg 81%
23:00 +26°C° 0 mm 3 mps 751 mmHg 79%
Show more